Regional Weather Roundup
Issued by NWS Sterling, VA

Home | Current Version | Previous Version | Graphics & Text | Print | Product List | Glossary On
Versions: 1 2 3 4 5 6 7 8 9 10 11 12 13 14 15 16 17 18 19 20 21 22 23 24 25 26 27 28 29 30 31 32 33 34 35 36 37 38 39 40 41 42 43 44 45 46 47 48 49 50
000
ASUS41 KLWX 211710
RWRLWX

REGIONAL WEATHER ROUNDUP
NATIONAL WEATHER SERVICE BALTIMORE MD/WASHINGTON DC
100 PM EDT THU MAY 21 2015

Note: "FAIR" indicates few or no clouds below 12,000 feet
with no significant weather and/or obstructions to visibility.
 TC=TEMPERATURE CELSIUS

 * =Non NWS site. Station does not report precipitation (e.g. rain,
    snow, etc.), thunder, or fog.

DCZ001-MDZ009-015-VAZ040>042-051-053>054-211800-
WASHINGTON METRO

CITY           SKY/WX    TMP DP  RH WIND       PRES   REMARKS
WASHINGTON NAT LGT RAIN  54  48  82 NE12      30.00F FOG
DULLES         LGT RAIN  50  47  89 E10       29.99F
ANDREWS AFB    RAIN      50  48  93 NE7       29.98F FOG
FT BELVOIR     RAIN      52  50  93 VRB1      29.99F FOG
QUANTICO       LGT RAIN  55  51  86 E10       29.98F FOG
COLLEGE PARK*  CLOUDY    50  48  93 E5        30.00F
LEESBURG*      LGT RAIN  52  52 100 E7        30.00F
MANASSAS*      LGT RAIN  54  54 100 NE8       29.99F FOG
GAITHERSBURG*  PTSUNNY   48  45  87 E3        30.03F

$$

MDZ006>007-011-014-211800-
BALTIMORE METRO

CITY           SKY/WX    TMP DP  RH WIND       PRES   REMARKS
BWI AIRPORT    LGT RAIN  50  44  80 E5        30.01F
MD SCIENCE CTR   N/A     52  43  71 MISG      30.02F
MARTIN STATE   DRIZZLE   52  46  82 E3        30.03F
ANNAPOLIS      LGT RAIN  50  46  86 NE5       30.00F FOG
FORT MEADE*    CLOUDY    48  45  87 E6        30.03F

$$

MDZ012-015-019>023-211800-
MARYLAND EASTERN SHORE

CITY           SKY/WX    TMP DP  RH WIND       PRES   REMARKS
OCEAN CITY     RAIN      57  51  80 NE5       29.98F
SALISBURY      CLOUDY    53  51  93 NE8       29.97F
BAY BRIDGE AP* RAIN     N/A N/A N/A E3        30.02F
CAMBRIDGE*     CLOUDY    54  50  87 NE7       29.98F
EASTON*        RAIN      54  54 100 N5        30.05F

$$

MDZ017>025-211800-
SOUTHERN MARYLAND

CITY           SKY/WX    TMP DP  RH WIND       PRES   REMARKS
PATUXENT RIVER LGT RAIN  53  51  93 NE10      29.97F FOG
ST INIGOES     RAIN      55  53  93 NE9       29.95F FOG
LEONARDTOWN*   CLOUDY    52  50  93 NE5       29.98F

$$

MDZ003>005-211800-
NORTH CENTRAL MARYLAND

CITY           SKY/WX    TMP DP  RH WIND       PRES   REMARKS
FREDERICK*     CLOUDY    54  50  87 VRB5      30.02F
HAGERSTOWN APT CLOUDY    53  45  74 VRB3      29.98F
WESTMINSTER*   PTSUNNY   54  46  76 SE6       29.99F

$$

MDZ501>502-211800-
WESTERN MARYLAND

CITY           SKY/WX    TMP DP  RH WIND       PRES   REMARKS
OAKLAND*       CLOUDY    45 N/A N/A SE5       29.94F FOG
CUMBERLAND*    PTSUNNY   52  46  82 S6        30.01F

$$

VAZ025>031-211800-
SHENANDOAH VALLEY

CITY           SKY/WX    TMP DP  RH WIND       PRES   REMARKS
WINCHESTER*    CLOUDY    54  46  76 CALM      29.97F HAZE
FRONT ROYAL*   CLOUDY    52  50  93 NE3       29.96F
LURAY*         RAIN      54  54 100 N3        29.97F
NEW MARKET*    CLOUDY    51  50  94 NE5       29.96F
STAUNTON*      LGT RAIN  53  50  90 NE6       29.97F
WAYNESBORO*    CLOUDY    51  49  94 CALM      29.96F

$$

WVZ021-048>050-054>055-211800-
EASTERN WEST VIRGINIA PANHANDLE

CITY           SKY/WX    TMP DP  RH WIND       PRES   REMARKS
MARTINSBURG    CLOUDY    52  50  93 CALM      29.98F FOG
PETERSBURG*    CLOUDY    51  48  87 CALM      29.98F FOG

$$

VAZ036>039-050-211800-
CENTRAL FOOTHILLS

CITY           SKY/WX    TMP DP  RH WIND       PRES   REMARKS
CHARLOTTESVILL LGT RAIN  53  51  93 N8        29.95F FOG
CULPEPER*      DRIZZLE   52  51  95 CALM      29.98F
ORANGE*        DRIZZLE   54  54 100 N3        29.98F
GORDONSVILLE*  CLOUDY    53  52  95 NE5       29.96F FOG
WARRENTON*     DRIZZLE   54  53  97 NE6       29.98S

$$

VAZ055>057-211800-
NORTH AND CENTRAL PIEDMONT

CITY           SKY/WX    TMP DP  RH WIND       PRES   REMARKS
FREDERICKSBRG* RAIN      56  56 100 E3        29.96F
STAFFORD*      RAIN      53  51  94 NE5       30.01F

$$

NCZ024-NYZ072-PAZ021-071-VAZ022-071-211800-
OTHER REGIONAL OBSERVATIONS

CITY           SKY/WX    TMP DP  RH WIND       PRES   REMARKS
NEW YORK CITY  CLOUDY    61  34  36 VRB6      30.00F
PHILADELPHIA   LGT RAIN  56  46  69 S5        30.01F
PITTSBURGH     CLOUDY    54  43  66 NW7       29.96F
ROANOKE        CLOUDY    59  53  80 NE5       29.95F
RICHMOND       LGT RAIN  57  54  89 NE9       29.91F FOG
RALEIGH        TSTM      66  63  88 NE5       29.84F VSB 3/4

$$

ANZ530>537-211800-
MARINE OBSERVATIONS

STATION/POSITION TIME  TEMP    WIND        PRES
                       AIR SEA DIR/SP/G
                 (UTC) (F)     (DEG/KT/KT) (MB)
THOMAS PT LIGHT  1700   49 66   50/ 11/ 12 1016.4F
BALT KEY BRIDGE  1600   52      40/  5/  7 1016.7F
COVE POINT       1600   53      60/ 10/ 13 1016.3F
LEWISETTA        1600   58 70              1014.1F
PINEY POINT      1600           60/  9/ 11   N/A

$$



USA.gov is the U.S. government's official web portal to all federal, state and local government web resources and services.